Back to catalog

STARLINK-4399

AliveCommunicationsSSO
NORAD 53469·PAYLOAD·🇺🇸 United States

Launched Aug 12, 2022 from Vandenberg Space Force Base

Loading…

Next Passes (next 24 hours)

TLE

FreshSource: CelesTrak SupGP

Epoch: Sep 14, 2026, 13:41 UTC

1 53469C 22099E   26257.57062500 -.00032554  00000+0 -10110-2 0  2578
2 53469  97.2864  15.3781 0000926  93.1142 173.0204 15.33440614    16

Track STARLINK-4399 in real time with AllMySat

Download on the App Store